Location: Wanzleben
(52.0609°N, 11.4408°E)
Time: 10:50:56
(UTC+00:00)

USA 238 - Pass Details

Date: 18 September 2020
Orbit: 1006 x 1206 km, 63.4° (Epoch: 15 October)

Event Time Altitude Azimuth Distance (km) Brightness Sun altitude
Rises 19:31:48 0° 314° (NW) 3,935 8.1 -19.9°
Reaches altitude 10° 19:34:28 10° 311° (NW) 3,002 7.2 -20.3°
Maximum altitude 19:41:30 60° 234° (SW) 1,312 4.2 -21.2°
Enters shadow 19:45:44 26° 165° (SSE) 2,112 4.8 -21.7°
